Location: Emblem
(62.4273°N, 6.4710°E)
Time: 06:28:37
(UTC+01:00)

A-11 Canister half - Visible Passes

Search period start: 06 February 2023 00:00
Search period end: 16 February 2023 00:00
Orbit: 1514 x 1686 km, 47.2° (Epoch: 05 February)

Date Brightness Start Highest point End Pass type
(mag) Time Alt. Az. Time Alt. Az. Time Alt. Az.
13 Feb 11.8 07:44:21 10° SSE 07:48:05 13° SE 07:51:45 10° ESE visible
14 Feb 11.8 07:22:05 10° SSE 07:25:18 12° SE 07:28:29 10° ESE visible
15 Feb 11.8 06:59:56 10° SE 07:02:31 11° SE 07:05:06 10° ESE visible
